{"data":{"norad_id":62085,"epoch":"2026-09-22T21:56:14.632800Z","epoch_age_seconds":98861,"freshness":"FRESH","line1":"1 62085U 24219E   26265.91405825  .00000671  00000+0  99022-4 0  9993","line2":"2 62085  98.0172  69.2576 0001268   1.1102 359.0111 14.78499391 98447","mean_motion":14.78499391,"eccentricity":0.0001268,"inclination_deg":98.0172,"raan_deg":69.2576,"arg_perigee_deg":1.1102,"mean_anomaly_deg":359.0111,"bstar":9.9022e-5,"rev_number":9844,"period_min":97.396049586875,"perigee_km":633.1756867384,"apogee_km":634.95398112348,"semimajor_km":7012.2018339309,"source":"CELESTRAK","updated_at":"2026-09-23T09:00:21.211774Z"}}